Location: Warszawa
(52.2500°N, 21.0000°E)
Time: 10:02:46
(UTC+02:00)

AO-27 - Pass Details

Date: 20 April 2024
Orbit: 783 x 796 km, 98.8° (Epoch: 20 May)

Event Time Altitude Azimuth Distance (km) Brightness Sun altitude
Exits shadow 22:06:26 - 207° (SSW) 3,099 10.5 -18.3°
Reaches altitude 10° 22:08:44 10° 220° (SW) 2,365 10.0 -18.6°
Maximum altitude 22:12:41 22° 270° (W) 1,708 9.8 -18.9°
Drops below altitude 10° 22:16:40 10° 319° (NW) 2,380 11.4 -19.3°
Sets 22:19:34 0° 335° (NNW) 3,315 12.4 -19.6°
